When you browse on this site, cookies collect data to enhance your experience and personalize the content and advertising you see.
Visit our Privacy Policy to learn more. By continuing to use the site, you agree to this use of cookies and data.
  • In United Kingdom
  • List of Countries
  • For 7 days
  • Water Temperature
  • Satellite Maps
  • Weather Map
  • Weather Widgets
  • user-avatar
    Login

    Hourly Weather Ayteke

    Today, 16 June, Sunday

    Time Temperature Precipitation Wind Pressure Humidity
    00:00 +25°C° 0 mm 3 mps 752 mmHg 20%
    01:00 +24°C° 0 mm 2 mps 752 mmHg 21%
    02:00 +23°C° 0 mm 2 mps 752 mmHg 23%
    03:00 +23°C° 0 mm 2 mps 752 mmHg 25%
    04:00 +21°C° 0 mm 2 mps 753 mmHg 28%
    05:00 +23°C° 0 mm 2 mps 753 mmHg 27%
    06:00 +24°C° 0 mm 2 mps 753 mmHg 26%
    07:00 +26°C° 0 mm 2 mps 753 mmHg 25%
    08:00 +27°C° 0 mm 2 mps 753 mmHg 23%
    09:00 +28°C° 0 mm 2 mps 753 mmHg 20%
    10:00 +29°C° 0 mm 2 mps 754 mmHg 19%
    11:00 +30°C° 0 mm 1 mps 753 mmHg 18%
    12:00 +31°C° 0 mm 1 mps 753 mmHg 17%
    13:00 +32°C° 0 mm 1 mps 753 mmHg 16%
    14:00 +32°C° 0 mm 1 mps 753 mmHg 16%
    15:00 +33°C° 0 mm 1 mps 752 mmHg 16%
    16:00 +33°C° 0 mm 1 mps 752 mmHg 15%
    17:00 +33°C° 0 mm 1 mps 752 mmHg 15%
    18:00 +33°C° 0 mm 1 mps 752 mmHg 16%
    19:00 +34°C° 0 mm 2 mps 752 mmHg 16%
    20:00 +32°C° 0 mm 2 mps 752 mmHg 17%
    21:00 +31°C° 0 mm 3 mps 752 mmHg 18%
    22:00 +29°C° 0 mm 3 mps 752 mmHg 19%
    23:00 +29°C° 0 mm 3 mps 751 mmHg 19%

    Tomorrow, 17 June, Monday

    Time Temperature Precipitation Wind Pressure Humidity
    00:00 +28°C° 0 mm 3 mps 751 mmHg 20%
    01:00 +27°C° 0 mm 4 mps 751 mmHg 21%
    02:00 +27°C° 0 mm 4 mps 751 mmHg 21%
    03:00 +26°C° 0 mm 4 mps 751 mmHg 22%
    04:00 +26°C° 0 mm 4 mps 750 mmHg 22%
    05:00 +27°C° 0 mm 5 mps 751 mmHg 21%
    06:00 +28°C° 0 mm 5 mps 751 mmHg 20%
    07:00 +30°C° 0 mm 6 mps 751 mmHg 19%
    08:00 +32°C° 0 mm 6 mps 751 mmHg 17%
    09:00 +34°C° 0 mm 5 mps 751 mmHg 15%
    10:00 +36°C° 0 mm 5 mps 751 mmHg 13%
    11:00 +36°C° 0 mm 4 mps 751 mmHg 13%
    12:00 +37°C° 0 mm 3 mps 750 mmHg 12%
    13:00 +38°C° 0 mm 2 mps 750 mmHg 11%
    14:00 +38°C° 0 mm 2 mps 750 mmHg 11%
    15:00 +38°C° 0 mm 2 mps 749 mmHg 11%
    16:00 +39°C° 0 mm 2 mps 749 mmHg 11%
    17:00 +38°C° 0 mm 4 mps 749 mmHg 11%
    18:00 +37°C° 0 mm 5 mps 748 mmHg 12%
    19:00 +36°C° 0 mm 7 mps 748 mmHg 13%
    20:00 +35°C° 0 mm 7 mps 748 mmHg 15%
    21:00 +34°C° 0 mm 6 mps 749 mmHg 17%
    22:00 +33°C° 0 mm 6 mps 749 mmHg 19%
    23:00 +32°C° 0 mm 5 mps 749 mmHg 22%

    Day after tomorrow, 18 June, Tuesday

    Time Temperature Precipitation Wind Pressure Humidity
    00:00 +30°C° 0 mm 5 mps 749 mmHg 24%
    01:00 +30°C° 0 mm 4 mps 749 mmHg 26%
    02:00 +29°C° 0 mm 5 mps 749 mmHg 28%
    03:00 +28°C° 0 mm 6 mps 749 mmHg 29%
    04:00 +28°C° 0 mm 7 mps 749 mmHg 31%
    05:00 +29°C° 0 mm 7 mps 749 mmHg 29%
    06:00 +30°C° 0 mm 6 mps 749 mmHg 27%
    07:00 +32°C° 0 mm 6 mps 750 mmHg 25%
    08:00 +34°C° 0 mm 5 mps 750 mmHg 22%
    09:00 +35°C° 0 mm 5 mps 750 mmHg 19%
    10:00 +36°C° 0 mm 4 mps 750 mmHg 17%
    11:00 +37°C° 0 mm 4 mps 750 mmHg 16%
    12:00 +38°C° 0 mm 3 mps 750 mmHg 14%
    13:00 +39°C° 0 mm 3 mps 749 mmHg 13%
    14:00 +40°C° 0 mm 4 mps 749 mmHg 14%
    15:00 +38°C° 0 mm 4 mps 749 mmHg 15%
    16:00 +38°C° 0 mm 4 mps 748 mmHg 15%
    17:00 +38°C° 0 mm 6 mps 748 mmHg 18%
    18:00 +35°C° 0 mm 8 mps 749 mmHg 21%
    19:00 +34°C° 0 mm 10 mps 749 mmHg 24%
    20:00 +32°C° 0 mm 9 mps 749 mmHg 25%
    21:00 +31°C° 0 mm 8 mps 749 mmHg 27%
    22:00 +28°C° 0 mm 7 mps 749 mmHg 28%
    23:00 +28°C° 0 mm 7 mps 749 mmHg 28%

    19 June, Wednesday

    Time Temperature Precipitation Wind Pressure Humidity
    00:00 +27°C° 0 mm 6 mps 749 mmHg 29%
    01:00 +26°C° 0 mm 6 mps 749 mmHg 29%
    02:00 +26°C° 0 mm 5 mps 749 mmHg 30%
    03:00 +25°C° 0 mm 5 mps 749 mmHg 30%
    04:00 +23°C° 0 mm 4 mps 749 mmHg 30%
    05:00 +26°C° 0 mm 4 mps 749 mmHg 28%
    06:00 +27°C° 0 mm 4 mps 749 mmHg 25%
    07:00 +29°C° 0 mm 5 mps 749 mmHg 22%
    08:00 +30°C° 0 mm 4 mps 749 mmHg 20%
    09:00 +33°C° 0 mm 4 mps 749 mmHg 17%
    10:00 +35°C° 0 mm 4 mps 750 mmHg 15%
    11:00 +36°C° 0 mm 4 mps 749 mmHg 14%
    12:00 +37°C° 0 mm 3 mps 749 mmHg 13%
    13:00 +38°C° 0 mm 3 mps 749 mmHg 12%
    14:00 +38°C° 0 mm 4 mps 749 mmHg 12%
    15:00 +38°C° 0 mm 4 mps 749 mmHg 11%
    16:00 +40°C° 0 mm 5 mps 749 mmHg 11%
    17:00 +38°C° 0 mm 7 mps 749 mmHg 13%
    18:00 +35°C° 0 mm 9 mps 749 mmHg 16%
    19:00 +33°C° 0 mm 11 mps 749 mmHg 19%
    20:00 +32°C° 0 mm 10 mps 749 mmHg 21%
    21:00 +29°C° 0 mm 9 mps 749 mmHg 23%
    22:00 +28°C° 0 mm 8 mps 750 mmHg 25%
    23:00 +28°C° 0 mm 7 mps 749 mmHg 27%

    20 June, Thursday

    Time Temperature Precipitation Wind Pressure Humidity
    00:00 +27°C° 0 mm 6 mps 749 mmHg 29%
    01:00 +26°C° 0 mm 6 mps 749 mmHg 31%
    02:00 +26°C° 0 mm 6 mps 749 mmHg 31%
    03:00 +26°C° 0 mm 5 mps 749 mmHg 31%
    04:00 +25°C° 0 mm 5 mps 749 mmHg 30%
    05:00 +27°C° 0 mm 5 mps 749 mmHg 25%
    06:00 +29°C° 0 mm 6 mps 749 mmHg 20%
    07:00 +32°C° 0 mm 6 mps 749 mmHg 16%
    08:00 +34°C° 0 mm 6 mps 749 mmHg 14%
    09:00 +36°C° 0 mm 6 mps 749 mmHg 12%
    10:00 +38°C° 0 mm 7 mps 749 mmHg 10%
    11:00 +39°C° 0 mm 7 mps 749 mmHg 10%
    12:00 +40°C° 0 mm 6 mps 749 mmHg 10%
    13:00 +41°C° 0 mm 6 mps 749 mmHg 9%
    14:00 +41°C° 0 mm 6 mps 749 mmHg 9%
    15:00 +41°C° 0 mm 6 mps 748 mmHg 9%
    16:00 +41°C° 0 mm 7 mps 748 mmHg 9%
    17:00 +40°C° 0 mm 7 mps 748 mmHg 10%
    18:00 +38°C° 0 mm 7 mps 748 mmHg 11%
    19:00 +37°C° 0 mm 8 mps 748 mmHg 12%
    20:00 +35°C° 0 mm 7 mps 749 mmHg 14%
    21:00 +33°C° 0 mm 7 mps 749 mmHg 16%
    22:00 +32°C° 0 mm 7 mps 749 mmHg 18%
    23:00 +30°C° 0 mm 7 mps 749 mmHg 18%

    21 June, Friday

    Time Temperature Precipitation Wind Pressure Humidity
    00:00 +30°C° 0 mm 6 mps 749 mmHg 19%
    01:00 +29°C° 0 mm 6 mps 749 mmHg 19%
    02:00 +29°C° 0 mm 5 mps 749 mmHg 20%
    03:00 +28°C° 0 mm 5 mps 749 mmHg 21%
    04:00 +28°C° 0 mm 5 mps 750 mmHg 22%
    05:00 +29°C° 0 mm 5 mps 750 mmHg 21%
    06:00 +30°C° 0 mm 6 mps 750 mmHg 19%
    07:00 +32°C° 0 mm 6 mps 750 mmHg 18%
    08:00 +33°C° 0 mm 6 mps 750 mmHg 17%
    09:00 +34°C° 0 mm 6 mps 751 mmHg 15%
    10:00 +36°C° 0 mm 6 mps 751 mmHg 14%
    11:00 +36°C° 0 mm 6 mps 751 mmHg 14%
    12:00 +38°C° 0 mm 6 mps 750 mmHg 13%
    13:00 +39°C° 0 mm 6 mps 750 mmHg 12%
    14:00 +39°C° 0 mm 6 mps 750 mmHg 13%
    15:00 +39°C° 0 mm 7 mps 750 mmHg 13%
    16:00 +39°C° 0 mm 7 mps 750 mmHg 13%
    17:00 +37°C° 0 mm 8 mps 750 mmHg 15%
    18:00 +35°C° 0 mm 8 mps 750 mmHg 17%
    19:00 +34°C° 0 mm 8 mps 750 mmHg 19%
    20:00 +33°C° 0 mm 7 mps 751 mmHg 22%
    21:00 +30°C° 0 mm 7 mps 751 mmHg 25%
    22:00 +29°C° 0 mm 6 mps 751 mmHg 28%
    23:00 +29°C° 0 mm 5 mps 751 mmHg 28%
    Show more